Tracking 19706 objects as of 16-Jun-2019
HD Live streaming from Space Station
objects crossing your sky now

LEASAT 5

Track LEASAT 5 now!
LEASAT 5 is classified as:


NORAD ID: 20410
Int'l Code: 1990-002B
Perigee: 35,950.0 km
Apogee: 36,016.4 km
Inclination: 11.8 °
Period: 1,445.8 minutes
Semi major axis: 42354 km
RCS: 12.5892 m2 (large)
Launch date: January 9, 1990
Source: United States (US)
Launch site: AIR FORCE EASTERN TEST RANGE (AFETR)

Ultra High Frequency (UHF) satellite communications services to Australia; leased at end of use by U.S. Navy to Royal Australian Navy.
aabbcc
Your satellite tracking list
Your tracking list is empty




NASA's NSSDC Master Catalog

Two Line Element Set (TLE):
1 20410U 90002B   19166.86649330 -.00000273 +00000-0 +00000-0 0  9993
2 20410 011.7752 006.1126 0007843 001.5433 184.5046 00.99599757092948
Source of the keplerian elements: AFSPC